Terminal Aerodrome Forecast
Issued by NWS Tuscon, AZ

Home | Current Version | Previous Version | Text Only | Print | Product List | Glossary On
Versions: 1 2 3 4 5 6 7 8 9 10 11 12 13 14 15 16 17 18 19
000
FTUS45 KTWC 220100 AAB
TAFDUG
TAF AMD
KDUG 220129Z 2201/2224 30007KT P6SM SCT060 BKN090
     FM220600 02005KT P6SM SCT090 SCT150
     FM222100 28008KT P6SM VCSH SCT050=

USA.gov is the U.S. government's official web portal to all federal, state and local government web resources and services.